Location: Rostock
(54.0884°N, 12.1234°E)
Time: 02:10:30
(UTC+01:00)

ISS - Pass Details

Date: 07 January 2018
Orbit: 401 x 406 km, 51.6° (Epoch: 17 January)

Event Time Altitude Azimuth Distance (km) Brightness Sun altitude
Exits shadow 05:58:09 55° 166° (SSE) 495 -3.4 -20.8°
Drops below altitude 10° 06:01:12 10° 103° (ESE) 1,468 0.2 -20.3°
Sets 06:03:19 0° 99° (E) 2,329 1.7 -20.0°
